Vorticity
-10 -5 -6 -3 16 7 10 9 7 10 10 10 9 8 8 9 10 12 9 7 2 4 4 5 6 8 13 13 12 9 11 16 27 26 19 16 14 7 15 -2 -2 11 9 8 24 4 17 19 0 11 -8 -3 -2 -4
18 38 27 20 5 -2 -5 3 4 2 13 7 9 10 12 11 10 8 7 6 7 8 -4 1 -2 -4 3 5 6 6 0 -0 -8 -5 -7 10 -6 -13 -12 4 9 16 4 -10 -13 -14 -25 -22 -10 -6 16 -5 13 4
-8 13 5 14 23 8 17 13 8 -0 10 19 14 13 10 9 6 5 6 5 10 6 8 22 25 38 37 -2 15 20 11 3 14 17 15 10 3 10 1 13 28 9 10 7 7 18 16 11 -10 -8 -19 -1 16 16
6 8 14 11 12 -1 2 11 14 15 17 16 19 16 13 14 11 9 9 8 12 10 4 10 6 14 24 -4 14 19 21 0 -2 10 12 9 7 12 7 3 0 -6 4 -10 -0 8 21 31 23 21 19 6 2 14
26 22 21 30 16 16 12 11 11 10 12 8 8 5 11 15 10 14 3 13 12 2 -24 -2 -35 -29 -13 4 17 25 18 10 7 13 2 5 5 12 1 23 26 8 12 29 7 7 6 9 11 -1 7 12 16 9
14 18 26 28 19 14 20 17 17 13 7 12 15 13 11 11 23 22 9 4 -0 -7 14 -2 21 14 4 -14 5 20 28 30 23 12 -3 8 27 22 13 -1 27 14 14 -1 11 11 5 12 12 11 16 15 17 18
10 7 7 9 13 16 16 13 13 11 9 20 17 12 9 10 7 7 12 2 32 25 23 29 43 53 53 24 -8 8 13 9 7 16 -5 12 4 12 32 15 -12 2 -7 -7 20 22 22 17 13 14 15 15 11 9
8 8 9 10 10 10 12 13 16 15 14 10 5 13 18 7 2 1 -18 18 -8 1 4 28 0 7 -15 1 21 14 7 4 9 9 8 9 22 21 21 20 37 35 20 9 10 13 14 22 26 33 31 25 17 13
-4 11 12 13 10 10 11 13 13 13 16 16 15 13 13 13 12 11 6 13 14 15 9 -7 -9 8 22 20 26 22 17 14 18 8 14 20 9 -13 -1 1 1 11 12 26 31 20 12 7 14 18 14 9 6 3
18 10 1 1 7 13 12 12 13 14 15 17 18 14 13 16 14 8 14 7 6 6 3 -5 -2 16 24 7 8 16 26 26 2 20 37 33 11 15 24 19 30 19 13 12 6 12 14 8 -2 8 3 1 7 15
10 8 15 9 7 13 12 10 11 11 10 11 13 18 13 14 17 19 23 19 21 26 32 27 35 29 20 15 10 15 11 5 17 23 11 22 -8 44 21 23 13 13 8 1 2 8 3 1 0 3 2 3 9 10
18 15 14 11 12 11 6 11 12 16 15 16 13 18 16 14 22 12 22 18 9 15 11 10 13 13 20 26 24 21 17 17 6 14 11 13 15 24 11 18 6 -0 -2 5 -2 -1 2 4 9 6 3 8 11 7
16 19 20 14 17 8 7 8 9 7 6 12 18 18 17 14 9 5 14 6 9 9 6 9 11 11 20 19 15 12 12 13 15 14 2 -9 31 28 7 -5 1 8 -5 2 3 -1 2 6 10 9 8 12 12 10
16 15 16 22 11 7 6 7 7 5 6 10 15 15 6 11 15 16 5 6 12 2 0 4 7 8 13 19 11 10 12 8 11 6 -29 18 33 16 1 6 1 2 -8 -7 3 7 3 11 7 10 13 16 4 3
12 12 15 16 23 16 4 8 8 8 7 0 7 17 20 9 2 2 5 5 4 6 6 14 19 17 12 4 13 10 12 15 11 -3 12 6 31 22 6 3 7 -13 -18 5 3 -1 5 16 15 14 18 10 11 14
11 10 12 14 16 29 15 -8 11 10 8 -7 3 3 16 20 -2 -7 4 12 7 3 8 17 17 17 22 4 14 2 -1 -18 -15 -5 -2 6 14 -11 -2 -0 -2 6 4 3 3 4 23 11 15 16 12 13 18 20
11 12 14 13 10 18 32 -18 56 -2 21 13 10 -1 -10 -10 9 3 6 7 14 21 20 23 11 1 15 16 20 3 -9 17 19 12 -2 9 9 9 6 4 3 1 5 11 21 17 10 17 19 13 17 19 25 23
10 12 11 11 10 8 28 16 18 12 28 -5 -2 5 8 13 11 0 11 17 2 16 31 17 1 -1 -20 -0 -4 3 8 4 0 15 7 2 3 3 9 12 14 16 20 13 9 16 22 18 15 16 12 8 7 7
11 11 11 11 12 10 7 30 -5 9 38 3 6 2 -5 -12 11 -7 17 5 10 6 6 9 6 14 8 12 7 9 15 10 9 4 4 5 5 6 8 5 5 10 14 18 26 21 14 11 9 7 6 6 9 10
12 9 10 10 12 15 8 11 20 -1 25 45 3 7 5 11 24 0 7 13 7 8 9 -5 4 6 11 16 11 10 6 7 7 4 3 8 16 28 35 37 39 29 18 11 9 8 7 8 10 9 11 14 14 14
4 4 12 11 14 6 11 -1 3 6 -9 28 22 17 6 18 2 17 18 3 7 5 4 8 14 19 9 11 10 6 4 3 9 21 28 22 13 7 6 8 7 8 11 12 14 16 18 17 18 19 18 17 20 21
3 10 15 12 12 14 10 1 6 10 23 -13 28 3 -3 -2 11 12 5 8 3 6 7 12 13 13 14 14 7 9 24 34 21 9 5 5 5 8 8 14 16 13 9 10 11 10 10 11 12 13 14 13 11 5
12 16 12 16 -2 6 17 22 11 12 -5 10 11 26 20 6 4 9 3 4 8 11 11 11 12 17 21 33 33 16 7 6 8 8 8 11 12 13 13 7 3 7 14 11 11 14 14 12 11 11 12 12 11 10
2 7 2 27 7 12 19 -3 15 19 11 0 23 8 8 11 5 5 8 7 10 14 17 23 27 24 22 8 3 -0 1 7 11 11 10 21 19 12 8 1 14 9 15 16 10 10 15 20 23 24 24 25 25 25
7 25 -5 10 9 22 -19 29 13 18 -1 -3 6 -7 -14 -5 6 8 10 5 25 29 23 5 6 7 8 7 3 1 5 10 15 13 14 14 10 7 2 13 9 13 10 14 17 18 21 22 21 18 16 15 15 14
-31 13 6 14 22 -5 1 33 14 1 2 16 9 7 12 16 17 10 6 21 35 8 -6 3 3 8 9 9 7 15 14 5 12 19 20 9 4 5 13 8 9 12 18 22 22 21 20 19 12 18 21 26 24 21
2 8 20 -5 6 27 9 4 8 12 15 2 8 16 21 21 18 12 14 6 0 -1 0 4 11 11 8 13 11 8 13 26 21 11 4 6 11 12 9 11 15 23 23 19 17 13 18 13 22 20 26 23 22 20
31 3 6 42 18 14 5 18 22 16 11 17 17 14 8 -14 -17 -2 4 7 1 3 5 18 12 5 11 16 24 28 18 8 3 5 7 15 14 17 15 22 26 19 15 18 20 18 15 20 24 25 20 17 18 16
22 14 9 26 25 9 5 1 -2 4 14 10 3 11 8 14 12 6 3 2 5 9 18 15 -4 22 29 22 12 8 4 4 10 8 15 13 18 18 25 22 13 16 23 24 22 18 20 21 18 21 21 22 22 24
6 27 17 18 11 5 3 10 8 7 12 11 6 6 5 5 6 10 13 15 17 22 13 3 34 21 8 7 5 3 8 10 6 13 14 15 17 21 18 12 16 24 25 21 18 20 21 23 20 21 23 26 27 29
25 23 6 14 15 19 17 14 5 9 12 16 23 24 24 21 20 21 23 21 12 14 31 24 11 7 8 8 8 10 14 10 12 12 17 15 18 19 14 15 18 26 28 24 24 23 20 19 18 18 16 16 16 14
19 20 14 6 3 6 14 13 1 -2 7 15 20 22 21 18 14 18 25 30 29 21 18 12 7 10 7 5 10 11 12 12 11 16 13 19 20 15 14 15 17 20 18 15 14 14 17 18 15 14 14 12 11 8
13 15 21 25 11 -1 2 4 6 7 11 25 26 11 5 11 19 25 21 10 6 11 16 14 6 4 8 10 7 4 12 12 15 14 18 18 17 12 12 15 15 12 11 13 13 13 13 14 14 13 12 11 10 10
Height
3050 3055 3059 3063 3066 3069 3072 3075 3080 3082 3084 3085 3087 3089 3090 3091 3092 3094 3095 3096 3098 3098 3098 3098 3098 3099 3098 3099 3099 3100 3101 3099 3098 3097 3097 3096 3093 3094 3093 3092 3091 3092 3091 3088 3087 3088 3083 3077 3078 3080 3075 3069 3066 3065
3039 3042 3048 3051 3056 3058 3062 3065 3068 3072 3074 3076 3078 3080 3082 3083 3084 3085 3088 3089 3090 3092 3093 3091 3092 3092 3092 3093 3092 3092 3094 3093 3093 3091 3091 3089 3088 3086 3087 3087 3086 3085 3084 3084 3084 3077 3074 3072 3070 3067 3063 3062 3062 3058
3029 3032 3037 3041 3045 3050 3053 3055 3058 3060 3063 3066 3068 3071 3072 3074 3076 3077 3079 3080 3080 3080 3083 3082 3082 3082 3083 3084 3085 3087 3086 3086 3085 3084 3083 3081 3081 3079 3078 3074 3075 3073 3075 3071 3071 3067 3068 3067 3063 3057 3053 3052 3050 3048
3019 3023 3029 3032 3035 3039 3043 3046 3049 3051 3054 3056 3059 3062 3064 3065 3067 3069 3071 3072 3073 3072 3072 3074 3073 3074 3074 3076 3078 3080 3080 3079 3079 3077 3074 3072 3072 3069 3067 3069 3066 3068 3066 3064 3058 3058 3057 3055 3052 3048 3045 3043 3039 3038
3009 3014 3018 3022 3026 3030 3034 3036 3039 3043 3045 3048 3051 3053 3056 3058 3060 3061 3064 3066 3065 3069 3065 3066 3066 3067 3068 3069 3070 3071 3071 3070 3069 3067 3065 3064 3062 3064 3057 3055 3050 3054 3055 3053 3047 3051 3046 3043 3041 3040 3036 3031 3030 3027
3002 3006 3009 3013 3018 3021 3025 3027 3031 3034 3036 3039 3042 3045 3047 3051 3054 3055 3056 3058 3058 3060 3061 3057 3054 3056 3059 3060 3061 3061 3060 3058 3058 3058 3056 3053 3054 3056 3049 3041 3043 3045 3043 3041 3038 3038 3035 3032 3030 3028 3025 3022 3019 3015
2997 3000 3004 3008 3011 3014 3017 3020 3023 3026 3029 3031 3033 3036 3039 3041 3046 3048 3048 3050 3052 3054 3054 3051 3047 3044 3047 3051 3054 3054 3053 3051 3050 3050 3046 3046 3046 3047 3040 3035 3038 3036 3034 3033 3030 3027 3025 3022 3020 3018 3017 3012 3010 3007
2993 2996 2999 3004 3006 3008 3011 3013 3016 3018 3022 3025 3027 3028 3031 3033 3036 3040 3040 3043 3044 3046 3047 3046 3040 3042 3042 3042 3044 3044 3043 3043 3041 3039 3036 3036 3036 3035 3029 3030 3028 3027 3024 3022 3020 3017 3015 3012 3012 3010 3008 3005 3002 3002
2991 2992 2995 2998 3001 3004 3005 3008 3009 3012 3015 3017 3020 3021 3024 3027 3030 3032 3034 3035 3036 3041 3037 3033 3035 3038 3034 3034 3034 3034 3033 3031 3032 3029 3029 3029 3024 3019 3022 3021 3020 3020 3016 3013 3013 3012 3010 3007 3005 3005 3001 2998 2996 2995
2985 2988 2990 2993 2996 2998 2999 3002 3003 3005 3009 3010 3013 3015 3015 3019 3023 3026 3026 3027 3027 3027 3026 3026 3028 3030 3031 3029 3028 3029 3025 3026 3022 3021 3020 3016 3010 3014 3014 3013 3010 3009 3010 3009 3008 3006 3004 3000 3000 2997 2994 2991 2988 2985
2977 2981 2984 2987 2990 2994 2996 2997 2999 3001 3003 3005 3006 3009 3010 3012 3016 3018 3019 3020 3018 3017 3017 3017 3019 3020 3021 3022 3022 3023 3020 3020 3017 3016 3016 3008 3004 3005 3004 3004 3004 3006 3004 3004 3003 3001 2996 2993 2992 2989 2985 2982 2979 2975
2971 2975 2978 2982 2985 2989 2991 2994 2995 2997 2999 3000 3002 3004 3007 3009 3010 3012 3010 3013 3011 3013 3012 3011 3012 3012 3015 3016 3016 3015 3015 3015 3012 3009 3008 3002 3001 2999 2998 2998 3000 3001 3001 2999 2997 2994 2990 2987 2985 2980 2976 2971 2967 2963
2965 2968 2973 2976 2980 2983 2987 2990 2992 2993 2996 2997 2999 3001 3003 3004 3004 3003 3001 3003 3008 3008 3008 3009 3008 3008 3009 3012 3011 3011 3010 3010 3009 3006 3001 2998 2997 2995 2995 2995 2995 2993 2993 2991 2989 2986 2982 2978 2974 2971 2964 2960 2955 2950
2961 2964 2967 2970 2974 2977 2981 2985 2988 2989 2992 2994 2995 2997 2998 2997 2995 2996 3000 3000 3003 3004 3007 3007 3005 3005 3005 3007 3006 3007 3005 3005 3003 2999 2994 2994 2993 2991 2988 2989 2989 2988 2985 2984 2980 2976 2972 2967 2962 2958 2953 2948 2943 2938
2958 2960 2962 2966 2968 2972 2977 2981 2982 2986 2987 2988 2991 2991 2990 2992 2993 2994 2998 2999 2999 3002 3002 3000 3001 3002 3002 3003 3001 3000 2999 2996 2992 2989 2990 2988 2988 2986 2984 2984 2983 2980 2978 2973 2969 2965 2960 2955 2950 2945 2941 2936 2932 2927
2954 2956 2958 2961 2963 2966 2971 2974 2974 2977 2980 2984 2985 2985 2987 2988 2990 2994 2994 2994 2996 2995 2995 2997 2996 2996 2996 2995 2993 2990 2989 2986 2986 2986 2985 2984 2984 2981 2980 2978 2975 2970 2965 2960 2956 2952 2947 2942 2937 2931 2927 2924 2920 2915
2948 2953 2956 2955 2958 2962 2965 2968 2967 2966 2972 2975 2979 2981 2983 2986 2988 2988 2987 2989 2990 2989 2987 2991 2991 2990 2988 2986 2984 2982 2977 2979 2982 2983 2980 2978 2975 2972 2969 2965 2961 2956 2952 2948 2943 2939 2934 2929 2924 2920 2916 2913 2909 2904
2944 2949 2951 2952 2954 2959 2961 2960 2960 2961 2962 2968 2974 2975 2977 2981 2983 2983 2984 2985 2984 2981 2981 2983 2985 2982 2980 2977 2975 2976 2976 2976 2975 2972 2970 2967 2963 2961 2957 2951 2947 2944 2939 2935 2931 2926 2921 2917 2913 2909 2906 2902 2898 2894
2943 2945 2948 2949 2952 2954 2955 2955 2957 2958 2960 2961 2967 2970 2973 2975 2976 2978 2980 2978 2979 2977 2977 2977 2977 2972 2970 2971 2971 2971 2970 2967 2964 2960 2957 2954 2951 2946 2943 2939 2934 2930 2925 2921 2917 2913 2909 2906 2902 2898 2894 2889 2883 2880
2938 2941 2943 2945 2947 2949 2952 2953 2954 2957 2958 2957 2959 2963 2968 2971 2971 2972 2974 2974 2973 2971 2970 2967 2965 2966 2966 2966 2965 2963 2960 2958 2953 2948 2945 2943 2939 2934 2929 2925 2921 2917 2913 2909 2905 2902 2897 2892 2889 2884 2879 2875 2870 2867
2933 2936 2938 2940 2943 2945 2947 2948 2951 2952 2952 2954 2956 2959 2962 2964 2966 2967 2967 2967 2964 2961 2959 2959 2960 2960 2959 2958 2956 2953 2950 2947 2942 2939 2934 2929 2928 2924 2919 2916 2911 2906 2901 2896 2891 2887 2883 2878 2874 2870 2865 2861 2858 2854
2928 2931 2934 2935 2939 2941 2943 2945 2947 2948 2951 2951 2952 2954 2956 2959 2961 2961 2960 2957 2953 2954 2955 2955 2953 2952 2950 2948 2946 2944 2940 2936 2933 2930 2926 2921 2916 2913 2909 2905 2899 2895 2890 2885 2880 2874 2870 2866 2862 2857 2852 2849 2846 2843
2923 2928 2930 2932 2934 2937 2939 2939 2941 2943 2945 2946 2948 2950 2951 2953 2953 2954 2951 2947 2947 2949 2949 2947 2946 2943 2940 2938 2935 2934 2931 2928 2925 2921 2917 2912 2908 2904 2899 2896 2891 2885 2878 2874 2869 2862 2857 2854 2849 2845 2840 2836 2833 2830
2917 2923 2927 2929 2931 2931 2931 2933 2934 2936 2939 2941 2943 2945 2946 2947 2947 2946 2942 2940 2942 2943 2941 2938 2935 2932 2931 2930 2928 2927 2924 2920 2915 2912 2908 2903 2898 2895 2891 2886 2881 2875 2868 2860 2855 2850 2844 2839 2834 2829 2825 2821 2818 2815
2914 2920 2924 2923 2923 2925 2927 2928 2929 2932 2934 2936 2940 2941 2941 2942 2941 2938 2934 2934 2936 2934 2932 2930 2929 2927 2925 2923 2921 2919 2916 2911 2906 2902 2900 2893 2888 2884 2881 2876 2871 2865 2857 2848 2842 2836 2831 2825 2820 2816 2812 2809 2805 2802
2912 2916 2916 2916 2918 2921 2923 2924 2926 2928 2931 2934 2935 2935 2935 2935 2934 2931 2929 2931 2929 2928 2927 2925 2923 2921 2919 2916 2912 2909 2906 2902 2898 2894 2891 2886 2881 2874 2868 2861 2855 2850 2844 2837 2830 2824 2819 2815 2811 2807 2803 2799 2795 2792
2909 2908 2909 2912 2914 2916 2919 2922 2924 2927 2928 2929 2929 2930 2930 2929 2927 2926 2926 2925 2924 2922 2920 2918 2915 2913 2910 2907 2904 2900 2896 2892 2889 2886 2883 2879 2874 2866 2859 2851 2844 2839 2832 2826 2821 2815 2810 2806 2802 2797 2793 2790 2787 2785
2906 2908 2909 2910 2912 2915 2918 2920 2922 2923 2924 2924 2924 2923 2924 2923 2923 2922 2920 2919 2917 2915 2912 2910 2907 2905 2902 2898 2895 2892 2889 2886 2883 2879 2875 2871 2866 2859 2851 2844 2837 2830 2824 2819 2813 2808 2804 2799 2795 2791 2788 2785 2783 2781
2904 2905 2907 2908 2911 2914 2916 2917 2918 2918 2919 2918 2918 2918 2917 2916 2916 2914 2913 2911 2909 2906 2904 2902 2900 2897 2894 2891 2888 2885 2882 2879 2875 2871 2866 2861 2856 2851 2842 2836 2830 2824 2818 2813 2808 2804 2799 2795 2790 2787 2784 2782 2780 2778
2904 2905 2907 2907 2908 2911 2913 2914 2914 2914 2914 2913 2913 2912 2911 2910 2908 2906 2903 2901 2899 2898 2896 2894 2892 2890 2888 2886 2885 2883 2878 2873 2868 2863 2857 2852 2847 2841 2835 2830 2824 2818 2813 2808 2804 2800 2796 2792 2789 2786 2783 2781 2779 2778
2904 2905 2907 2907 2908 2909 2910 2910 2910 2910 2910 2909 2907 2904 2902 2900 2898 2896 2895 2893 2891 2890 2888 2887 2886 2884 2883 2880 2877 2874 2872 2868 2863 2857 2851 2845 2840 2835 2831 2826 2821 2815 2810 2806 2802 2799 2796 2793 2790 2788 2786 2784 2783 2783
2903 2904 2905 2906 2907 2907 2907 2907 2908 2907 2906 2903 2900 2898 2896 2894 2892 2891 2888 2886 2885 2884 2883 2883 2882 2880 2877 2874 2870 2866 2862 2858 2854 2849 2845 2841 2837 2833 2829 2824 2820 2816 2812 2808 2805 2801 2798 2796 2794 2792 2790 2789 2788 2787
2903 2903 2904 2904 2905 2906 2906 2905 2903 2901 2899 2896 2894 2894 2892 2891 2889 2887 2885 2884 2883 2882 2880 2878 2876 2874 2871 2868 2864 2861 2857 2852 2848 2845 2841 2837 2834 2830 2827 2824 2821 2817 2814 2810 2807 2804 2802 2799 2797 2796 2794 2793 2791 2790